Time,TemperatureF,DewpointF,PressureIn,WindDirection,WindDirectionDegrees,WindSpeedMPH,WindSpeedGustMPH,Humidity,HourlyPrecipIn,Conditions,Clouds,dailyrainin,SolarRadiationWatts/m^2,SoftwareType,DateUTC
2013-06-05 00:03:00,71.0,66.0,-100.00,East,79,2.0,5.0,85,0.00,,,0.00,0.000000,,2013-06-05 04:03:00,
2013-06-05 00:13:00,71.0,66.0,-100.00,East,79,2.0,5.0,85,0.00,,,0.00,0.000000,,2013-06-05 04:13:00,
2013-06-05 00:33:00,70.0,65.0,-100.00,ESE,108,2.0,6.0,85,0.00,,,0.00,0.000000,,2013-06-05 04:33:00,
2013-06-05 00:42:00,70.0,65.0,-100.00,ESE,108,2.0,6.0,85,0.00,,,0.00,0.000000,,2013-06-05 04:42:00,
2013-06-05 00:53:00,70.0,65.0,-100.00,ESE,108,2.0,6.0,85,0.00,,,0.00,0.000000,,2013-06-05 04:53:00,
2013-06-05 01:02:00,70.0,65.0,-100.00,ESE,108,2.0,6.0,85,0.00,,,0.00,0.000000,,2013-06-05 05:02:00,
2013-06-05 01:12:00,70.0,65.0,-100.00,ESE,108,2.0,6.0,85,0.00,,,0.00,0.000000,,2013-06-05 05:12:00,
2013-06-05 01:32:00,69.0,65.0,-100.00,ESE,119,1.0,4.0,88,0.00,,,0.00,0.000000,,2013-06-05 05:32:00,
2013-06-05 01:42:00,69.0,65.0,-100.00,ESE,119,1.0,4.0,88,0.00,,,0.00,0.000000,,2013-06-05 05:42:00,
2013-06-05 01:53:00,69.0,65.0,-100.00,ESE,119,1.0,4.0,88,0.00,,,0.00,0.000000,,2013-06-05 05:53:00,
2013-06-05 02:02:00,69.0,65.0,-100.00,ESE,119,1.0,4.0,88,0.00,,,0.00,0.000000,,2013-06-05 06:02:00,
2013-06-05 02:12:00,69.0,65.0,-100.00,ESE,119,1.0,4.0,88,0.00,,,0.00,0.000000,,2013-06-05 06:12:00,
2013-06-05 02:32:00,68.0,65.0,-100.00,ENE,63,3.0,5.0,89,0.00,,,0.00,0.000000,,2013-06-05 06:32:00,
2013-06-05 02:42:00,68.0,65.0,-100.00,ENE,63,3.0,5.0,89,0.00,,,0.00,0.000000,,2013-06-05 06:42:00,
2013-06-05 02:52:00,68.0,65.0,-100.00,ENE,63,3.0,5.0,89,0.00,,,0.00,0.000000,,2013-06-05 06:52:00,
2013-06-05 03:02:00,68.0,65.0,-100.00,ENE,63,3.0,5.0,89,0.00,,,0.00,0.000000,,2013-06-05 07:02:00,
2013-06-05 03:12:00,68.0,65.0,-100.00,ENE,63,3.0,5.0,89,0.00,,,0.00,0.000000,,2013-06-05 07:12:00,
2013-06-05 03:32:00,68.0,65.0,-100.00,East,84,2.0,4.0,91,0.00,,,0.00,0.000000,,2013-06-05 07:32:00,
2013-06-05 03:42:00,68.0,65.0,-100.00,East,84,2.0,4.0,91,0.00,,,0.00,0.000000,,2013-06-05 07:42:00,
2013-06-05 03:52:00,68.0,65.0,-100.00,East,84,2.0,4.0,91,0.00,,,0.00,0.000000,,2013-06-05 07:52:00,
2013-06-05 04:02:00,68.0,65.0,-100.00,East,84,2.0,4.0,91,0.00,,,0.00,0.000000,,2013-06-05 08:02:00,
2013-06-05 04:12:00,68.0,65.0,-100.00,East,84,2.0,4.0,91,0.00,,,0.00,0.000000,,2013-06-05 08:12:00,
2013-06-05 04:32:00,67.0,65.0,-100.00,ENE,67,1.0,5.0,92,0.00,,,0.00,0.000000,,2013-06-05 08:32:00,
2013-06-05 04:42:00,67.0,65.0,-100.00,ENE,67,1.0,5.0,92,0.00,,,0.00,0.000000,,2013-06-05 08:42:00,
2013-06-05 04:52:00,67.0,65.0,-100.00,ENE,67,1.0,5.0,92,0.00,,,0.00,0.000000,,2013-06-05 08:52:00,
2013-06-05 05:02:00,67.0,65.0,-100.00,ENE,67,1.0,5.0,92,0.00,,,0.00,0.000000,,2013-06-05 09:02:00,
2013-06-05 05:12:00,67.0,65.0,-100.00,ENE,67,1.0,5.0,92,0.00,,,0.00,0.000000,,2013-06-05 09:12:00,
2013-06-05 05:33:00,67.0,65.0,-100.00,ENE,78,2.0,5.0,92,0.00,,,0.00,0.000000,,2013-06-05 09:33:00,
2013-06-05 05:43:00,67.0,65.0,-100.00,ENE,78,2.0,5.0,92,0.00,,,0.00,0.000000,,2013-06-05 09:43:00,
2013-06-05 05:53:00,67.0,65.0,-100.00,ENE,78,2.0,5.0,92,0.00,,,0.00,0.000000,,2013-06-05 09:53:00,
2013-06-05 06:03:00,67.0,65.0,-100.00,ENE,78,2.0,5.0,92,0.00,,,0.00,0.000000,,2013-06-05 10:03:00,
2013-06-05 06:12:00,67.0,65.0,-100.00,ENE,78,2.0,5.0,92,0.00,,,0.00,0.000000,,2013-06-05 10:12:00,
2013-06-05 06:33:00,67.0,64.0,-100.00,East,80,1.0,4.0,89,0.00,,,0.00,5.000000,,2013-06-05 10:33:00,
2013-06-05 06:43:00,67.0,64.0,-100.00,East,80,1.0,4.0,89,0.00,,,0.00,5.000000,,2013-06-05 10:43:00,
2013-06-05 06:53:00,67.0,64.0,-100.00,East,80,1.0,4.0,89,0.00,,,0.00,5.000000,,2013-06-05 10:53:00,
2013-06-05 07:02:00,67.0,64.0,-100.00,East,80,1.0,4.0,89,0.00,,,0.00,5.000000,,2013-06-05 11:02:00,
2013-06-05 07:12:00,67.0,64.0,-100.00,East,80,1.0,4.0,89,0.00,,,0.00,5.000000,,2013-06-05 11:12:00,
2013-06-05 07:33:00,69.0,64.0,-100.00,ENE,75,2.0,4.0,85,0.00,,,0.00,64.000000,,2013-06-05 11:33:00,
2013-06-05 07:42:00,69.0,64.0,-100.00,ENE,75,2.0,4.0,85,0.00,,,0.00,64.000000,,2013-06-05 11:42:00,
2013-06-05 07:52:00,69.0,64.0,-100.00,ENE,75,2.0,4.0,85,0.00,,,0.00,64.000000,,2013-06-05 11:52:00,
2013-06-05 08:02:00,69.0,64.0,-100.00,ENE,75,2.0,4.0,85,0.00,,,0.00,64.000000,,2013-06-05 12:02:00,
2013-06-05 08:12:00,69.0,64.0,-100.00,ENE,75,2.0,4.0,85,0.00,,,0.00,64.000000,,2013-06-05 12:12:00,
2013-06-05 08:32:00,73.0,63.0,-100.00,ENE,69,4.0,9.0,71,0.00,,,0.00,236.000000,,2013-06-05 12:32:00,
2013-06-05 08:44:00,73.0,63.0,-100.00,ENE,69,4.0,9.0,71,0.00,,,0.00,236.000000,,2013-06-05 12:44:00,
2013-06-05 08:52:00,73.0,63.0,-100.00,ENE,69,4.0,9.0,71,0.00,,,0.00,236.000000,,2013-06-05 12:52:00,
2013-06-05 09:02:00,73.0,63.0,-100.00,ENE,69,4.0,9.0,71,0.00,,,0.00,236.000000,,2013-06-05 13:02:00,
2013-06-05 09:12:00,73.0,63.0,-100.00,ENE,69,4.0,9.0,71,0.00,,,0.00,236.000000,,2013-06-05 13:12:00,
2013-06-05 09:33:00,76.0,63.0,-100.00,ENE,69,3.0,8.0,64,0.00,,,0.00,402.000000,,2013-06-05 13:33:00,
2013-06-05 09:42:00,76.0,63.0,-100.00,ENE,69,3.0,8.0,64,0.00,,,0.00,402.000000,,2013-06-05 13:42:00,
2013-06-05 09:53:00,76.0,63.0,-100.00,ENE,69,3.0,8.0,64,0.00,,,0.00,402.000000,,2013-06-05 13:53:00,
2013-06-05 10:02:00,76.0,63.0,-100.00,ENE,69,3.0,8.0,64,0.00,,,0.00,402.000000,,2013-06-05 14:02:00,
2013-06-05 10:12:00,76.0,63.0,-100.00,ENE,69,3.0,8.0,64,0.00,,,0.00,402.000000,,2013-06-05 14:12:00,
2013-06-05 10:42:00,79.0,63.0,-100.00,ENE,69,4.0,10.0,58,0.00,,,0.00,551.000000,,2013-06-05 14:42:00,
2013-06-05 10:52:00,79.0,63.0,-100.00,ENE,69,4.0,10.0,58,0.00,,,0.00,551.000000,,2013-06-05 14:52:00,
2013-06-05 11:03:00,79.0,63.0,-100.00,ENE,69,4.0,10.0,58,0.00,,,0.00,551.000000,,2013-06-05 15:03:00,
2013-06-05 11:12:00,79.0,63.0,-100.00,ENE,69,4.0,10.0,58,0.00,,,0.00,551.000000,,2013-06-05 15:12:00,
2013-06-05 11:33:00,81.0,61.0,-100.00,East,84,4.0,8.0,51,0.00,,,0.00,689.000000,,2013-06-05 15:33:00,
2013-06-05 11:43:00,81.0,61.0,-100.00,East,84,4.0,8.0,51,0.00,,,0.00,689.000000,,2013-06-05 15:43:00,
2013-06-05 11:53:00,81.0,61.0,-100.00,East,84,4.0,8.0,51,0.00,,,0.00,689.000000,,2013-06-05 15:53:00,
2013-06-05 12:04:00,81.0,61.0,-100.00,East,84,4.0,8.0,51,0.00,,,0.00,689.000000,,2013-06-05 16:04:00,
2013-06-05 12:13:00,81.0,61.0,-100.00,East,84,4.0,8.0,51,0.00,,,0.00,689.000000,,2013-06-05 16:13:00,
2013-06-05 12:32:00,83.0,62.0,-100.00,East,87,5.0,9.0,50,0.00,,,0.00,737.000000,,2013-06-05 16:32:00,
2013-06-05 12:42:00,83.0,62.0,-100.00,East,87,5.0,9.0,50,0.00,,,0.00,737.000000,,2013-06-05 16:42:00,
2013-06-05 12:54:00,83.0,62.0,-100.00,East,87,5.0,9.0,50,0.00,,,0.00,737.000000,,2013-06-05 16:54:00,
2013-06-05 13:02:00,83.0,62.0,-100.00,East,87,5.0,9.0,50,0.00,,,0.00,737.000000,,2013-06-05 17:02:00,
2013-06-05 13:13:00,83.0,62.0,-100.00,East,87,5.0,9.0,50,0.00,,,0.00,737.000000,,2013-06-05 17:13:00,
2013-06-05 13:33:00,83.0,62.0,-100.00,East,86,5.0,11.0,50,0.00,,,0.00,968.000000,,2013-06-05 17:33:00,
2013-06-05 13:43:00,83.0,62.0,-100.00,East,86,5.0,11.0,50,0.00,,,0.00,968.000000,,2013-06-05 17:43:00,
2013-06-05 13:52:00,83.0,62.0,-100.00,East,86,5.0,11.0,50,0.00,,,0.00,968.000000,,2013-06-05 17:52:00,
2013-06-05 14:02:00,83.0,62.0,-100.00,East,86,5.0,11.0,50,0.00,,,0.00,968.000000,,2013-06-05 18:02:00,
2013-06-05 14:13:00,83.0,62.0,-100.00,East,86,5.0,11.0,50,0.00,,,0.00,968.000000,,2013-06-05 18:13:00,
2013-06-05 14:42:00,83.0,61.0,-100.00,ENE,78,5.0,11.0,48,0.00,,,0.00,963.000000,,2013-06-05 18:42:00,
2013-06-05 14:52:00,83.0,61.0,-100.00,ENE,78,5.0,11.0,48,0.00,,,0.00,963.000000,,2013-06-05 18:52:00,
2013-06-05 15:03:00,83.0,61.0,-100.00,ENE,78,5.0,11.0,48,0.00,,,0.00,963.000000,,2013-06-05 19:03:00,
2013-06-05 15:13:00,83.0,61.0,-100.00,ENE,78,5.0,11.0,48,0.00,,,0.00,963.000000,,2013-06-05 19:13:00,
2013-06-05 15:32:00,82.0,61.0,-100.00,SE,124,6.0,12.0,49,0.00,,,0.00,898.000000,,2013-06-05 19:32:00,
2013-06-05 15:42:00,82.0,61.0,-100.00,SE,124,6.0,12.0,49,0.00,,,0.00,898.000000,,2013-06-05 19:42:00,
2013-06-05 15:53:00,82.0,61.0,-100.00,SE,124,6.0,12.0,49,0.00,,,0.00,898.000000,,2013-06-05 19:53:00,
2013-06-05 16:03:00,82.0,61.0,-100.00,SE,124,6.0,12.0,49,0.00,,,0.00,898.000000,,2013-06-05 20:03:00,
2013-06-05 16:12:00,82.0,61.0,-100.00,SE,124,6.0,12.0,49,0.00,,,0.00,898.000000,,2013-06-05 20:12:00,
2013-06-05 16:32:00,82.0,63.0,-100.00,ESE,111,6.0,11.0,52,0.00,,,0.00,768.000000,,2013-06-05 20:32:00,
2013-06-05 16:42:00,82.0,63.0,-100.00,ESE,111,6.0,11.0,52,0.00,,,0.00,768.000000,,2013-06-05 20:42:00,
2013-06-05 16:52:00,82.0,63.0,-100.00,ESE,111,6.0,11.0,52,0.00,,,0.00,768.000000,,2013-06-05 20:52:00,
2013-06-05 17:02:00,82.0,63.0,-100.00,ESE,111,6.0,11.0,52,0.00,,,0.00,768.000000,,2013-06-05 21:02:00,
2013-06-05 17:12:00,82.0,63.0,-100.00,ESE,111,6.0,11.0,52,0.00,,,0.00,768.000000,,2013-06-05 21:12:00,
2013-06-05 17:33:00,80.0,65.0,-100.00,ESE,119,5.0,12.0,60,0.00,,,0.00,485.000000,,2013-06-05 21:33:00,
2013-06-05 17:43:00,80.0,65.0,-100.00,ESE,119,5.0,12.0,60,0.00,,,0.00,485.000000,,2013-06-05 21:43:00,
2013-06-05 17:53:00,80.0,65.0,-100.00,ESE,119,5.0,12.0,60,0.00,,,0.00,485.000000,,2013-06-05 21:53:00,
2013-06-05 18:03:00,80.0,65.0,-100.00,ESE,119,5.0,12.0,60,0.00,,,0.00,485.000000,,2013-06-05 22:03:00,
2013-06-05 18:13:00,80.0,65.0,-100.00,ESE,119,5.0,12.0,60,0.00,,,0.00,485.000000,,2013-06-05 22:13:00,
2013-06-05 18:33:00,77.0,65.0,-100.00,SE,133,5.0,10.0,67,0.00,,,0.00,280.000000,,2013-06-05 22:33:00,
2013-06-05 18:43:00,77.0,65.0,-100.00,SE,133,5.0,10.0,67,0.00,,,0.00,280.000000,,2013-06-05 22:43:00,
2013-06-05 18:53:00,77.0,65.0,-100.00,SE,133,5.0,10.0,67,0.00,,,0.00,280.000000,,2013-06-05 22:53:00,
2013-06-05 19:02:00,77.0,65.0,-100.00,SE,133,5.0,10.0,67,0.00,,,0.00,280.000000,,2013-06-05 23:02:00,
2013-06-05 19:12:00,77.0,65.0,-100.00,SE,133,5.0,10.0,67,0.00,,,0.00,280.000000,,2013-06-05 23:12:00,
2013-06-05 19:32:00,75.0,65.0,-100.00,ESE,123,3.0,9.0,72,0.00,,,0.00,136.000000,,2013-06-05 23:32:00,
2013-06-05 19:42:00,75.0,65.0,-100.00,ESE,123,3.0,9.0,72,0.00,,,0.00,136.000000,,2013-06-05 23:42:00,
2013-06-05 19:53:00,75.0,65.0,-100.00,ESE,123,3.0,9.0,72,0.00,,,0.00,136.000000,,2013-06-05 23:53:00,
2013-06-05 20:02:00,75.0,65.0,-100.00,ESE,123,3.0,9.0,72,0.00,,,0.00,136.000000,,2013-06-06 00:02:00,
2013-06-05 20:12:00,75.0,65.0,-100.00,ESE,123,3.0,9.0,72,0.00,,,0.00,136.000000,,2013-06-06 00:12:00,
2013-06-05 20:43:00,72.0,65.0,-100.00,East,91,3.0,6.0,78,0.00,,,0.00,22.000000,,2013-06-06 00:43:00,
2013-06-05 20:52:00,72.0,65.0,-100.00,East,91,3.0,6.0,78,0.00,,,0.00,22.000000,,2013-06-06 00:52:00,
2013-06-05 21:02:00,72.0,65.0,-100.00,East,91,3.0,6.0,78,0.00,,,0.00,22.000000,,2013-06-06 01:02:00,
2013-06-05 21:12:00,72.0,65.0,-100.00,East,91,3.0,6.0,78,0.00,,,0.00,22.000000,,2013-06-06 01:12:00,
2013-06-05 21:32:00,71.0,66.0,-100.00,East,100,2.0,4.0,84,0.00,,,0.00,0.000000,,2013-06-06 01:32:00,
2013-06-05 21:42:00,71.0,66.0,-100.00,East,100,2.0,4.0,84,0.00,,,0.00,0.000000,,2013-06-06 01:42:00,
2013-06-05 21:53:00,71.0,66.0,-100.00,East,100,2.0,4.0,84,0.00,,,0.00,0.000000,,2013-06-06 01:53:00,
2013-06-05 22:02:00,71.0,66.0,-100.00,East,100,2.0,4.0,84,0.00,,,0.00,0.000000,,2013-06-06 02:02:00,
2013-06-05 22:12:00,71.0,66.0,-100.00,East,100,2.0,4.0,84,0.00,,,0.00,0.000000,,2013-06-06 02:12:00,
2013-06-05 22:32:00,71.0,65.0,-100.00,East,90,3.0,6.0,81,0.00,,,0.00,0.000000,,2013-06-06 02:32:00,
2013-06-05 22:42:00,71.0,65.0,-100.00,East,90,3.0,6.0,81,0.00,,,0.00,0.000000,,2013-06-06 02:42:00,
2013-06-05 22:52:00,71.0,65.0,-100.00,East,90,3.0,6.0,81,0.00,,,0.00,0.000000,,2013-06-06 02:52:00,
2013-06-05 23:02:00,71.0,65.0,-100.00,East,90,3.0,6.0,81,0.00,,,0.00,0.000000,,2013-06-06 03:02:00,
2013-06-05 23:12:00,71.0,65.0,-100.00,East,90,3.0,6.0,81,0.00,,,0.00,0.000000,,2013-06-06 03:12:00,
2013-06-05 23:33:00,71.0,66.0,-100.00,East,87,3.0,5.0,83,0.00,,,0.00,0.000000,,2013-06-06 03:33:00,
2013-06-05 23:43:00,71.0,66.0,-100.00,East,87,3.0,5.0,83,0.00,,,0.00,0.000000,,2013-06-06 03:43:00,
2013-06-05 23:53:00,71.0,66.0,-100.00,East,87,3.0,5.0,83,0.00,,,0.00,0.000000,,2013-06-06 03:53:00,